Time,TemperatureF,DewpointF,PressureIn,WindDirection,WindDirectionDegrees,WindSpeedMPH,WindSpeedGustMPH,Humidity,HourlyPrecipIn,Conditions,Clouds,dailyrainin,SoftwareType,DateUTC
2013-09-25 00:00:00,71.7,45.4,29.86,North,9,0.0,0.0,39,0.00,,,0.00,Wunderground v.1.15,2013-09-25 05:00:00,
2013-09-25 00:10:00,71.4,45.1,29.86,North,9,0.0,0.0,39,0.00,,,0.00,Wunderground v.1.15,2013-09-25 05:10:00,
2013-09-25 00:15:00,71.2,45.6,29.86,North,9,0.0,0.0,40,0.00,,,0.00,Wunderground v.1.15,2013-09-25 05:15:00,
2013-09-25 00:20:00,70.9,46.0,29.86,North,9,0.0,0.0,41,0.00,,,0.00,Wunderground v.1.15,2013-09-25 05:20:00,
2013-09-25 00:25:00,70.6,46.4,29.86,North,9,0.0,0.0,42,0.00,,,0.00,Wunderground v.1.15,2013-09-25 05:25:00,
2013-09-25 00:35:00,70.0,46.5,29.86,North,9,0.0,0.0,43,0.00,,,0.00,Wunderground v.1.15,2013-09-25 05:35:00,
2013-09-25 00:40:00,69.7,46.2,29.86,North,9,0.0,0.0,43,0.00,,,0.00,Wunderground v.1.15,2013-09-25 05:40:00,
2013-09-25 00:45:00,69.8,45.7,29.86,North,9,0.0,0.0,42,0.00,,,0.00,Wunderground v.1.15,2013-09-25 05:45:00,
2013-09-25 00:55:00,69.7,46.8,29.86,North,9,0.0,0.0,44,0.00,,,0.00,Wunderground v.1.15,2013-09-25 05:55:00,
2013-09-25 01:00:00,69.4,46.5,29.86,North,9,0.0,0.0,44,0.00,,,0.00,Wunderground v.1.15,2013-09-25 06:00:00,
2013-09-25 01:05:00,69.2,46.9,29.86,North,9,0.0,0.0,45,0.00,,,0.00,Wunderground v.1.15,2013-09-25 06:05:00,
2013-09-25 01:15:00,68.4,45.6,29.86,North,9,0.0,0.0,44,0.00,,,0.00,Wunderground v.1.15,2013-09-25 06:15:00,
2013-09-25 01:20:00,68.3,44.9,29.86,North,9,0.0,1.0,43,0.00,,,0.00,Wunderground v.1.15,2013-09-25 06:20:00,
2013-09-25 01:25:00,68.4,45.0,29.86,North,9,1.0,1.0,43,0.00,,,0.00,Wunderground v.1.15,2013-09-25 06:25:00,
2013-09-25 01:30:00,68.4,45.6,29.86,North,9,1.0,1.0,44,0.00,,,0.00,Wunderground v.1.15,2013-09-25 06:30:00,
2013-09-25 01:35:00,68.3,46.1,29.86,North,9,0.0,1.0,45,0.00,,,0.00,Wunderground v.1.15,2013-09-25 06:35:00,
2013-09-25 01:45:00,67.8,46.8,29.86,North,9,0.0,0.0,47,0.00,,,0.00,Wunderground v.1.15,2013-09-25 06:45:00,
2013-09-25 01:50:00,67.4,47.6,29.86,North,9,0.0,0.0,49,0.00,,,0.00,Wunderground v.1.15,2013-09-25 06:50:00,
2013-09-25 01:55:00,67.0,47.2,29.86,North,9,0.0,0.0,49,0.00,,,0.00,Wunderground v.1.15,2013-09-25 06:55:00,
2013-09-25 02:00:00,66.7,46.4,29.86,North,9,0.0,0.0,48,0.00,,,0.00,Wunderground v.1.15,2013-09-25 07:00:00,
2013-09-25 02:05:00,66.6,47.4,29.86,North,9,0.0,0.0,50,0.00,,,0.00,Wunderground v.1.15,2013-09-25 07:05:00,
2013-09-25 02:15:00,66.1,46.9,29.86,North,9,0.0,0.0,50,0.00,,,0.00,Wunderground v.1.15,2013-09-25 07:15:00,
2013-09-25 02:20:00,65.9,46.7,29.86,North,9,0.0,0.0,50,0.00,,,0.00,Wunderground v.1.15,2013-09-25 07:20:00,
2013-09-25 02:25:00,65.9,47.3,29.86,North,9,0.0,0.0,51,0.00,,,0.00,Wunderground v.1.15,2013-09-25 07:25:00,
2013-09-25 02:30:00,65.9,47.3,29.86,North,9,0.0,0.0,51,0.00,,,0.00,Wunderground v.1.15,2013-09-25 07:30:00,
2013-09-25 02:35:00,65.8,47.7,29.86,North,9,0.0,0.0,52,0.00,,,0.00,Wunderground v.1.15,2013-09-25 07:35:00,
2013-09-25 02:40:00,65.7,47.1,29.86,North,9,0.0,0.0,51,0.00,,,0.00,Wunderground v.1.15,2013-09-25 07:40:00,
2013-09-25 02:45:00,65.7,46.5,29.86,North,9,0.0,0.0,50,0.00,,,0.00,Wunderground v.1.15,2013-09-25 07:45:00,
2013-09-25 02:50:00,65.7,46.0,29.86,North,9,0.0,0.0,49,0.00,,,0.00,Wunderground v.1.15,2013-09-25 07:50:00,
2013-09-25 03:00:00,65.6,46.5,29.86,North,9,0.0,0.0,50,0.00,,,0.00,Wunderground v.1.15,2013-09-25 08:00:00,
2013-09-25 03:10:00,65.6,45.9,29.86,North,9,0.0,0.0,49,0.00,,,0.00,Wunderground v.1.15,2013-09-25 08:10:00,
2013-09-25 03:15:00,65.7,47.1,29.86,North,9,0.0,0.0,51,0.00,,,0.00,Wunderground v.1.15,2013-09-25 08:15:00,
2013-09-25 03:20:00,65.7,47.6,29.86,North,9,0.0,0.0,52,0.00,,,0.00,Wunderground v.1.15,2013-09-25 08:20:00,
2013-09-25 03:25:00,65.6,47.0,29.86,North,9,0.0,0.0,51,0.00,,,0.00,Wunderground v.1.15,2013-09-25 08:25:00,
2013-09-25 03:30:00,65.5,47.4,29.86,North,9,0.0,0.0,52,0.00,,,0.00,Wunderground v.1.15,2013-09-25 08:30:00,
2013-09-25 03:35:00,65.3,47.2,29.86,North,9,0.0,0.0,52,0.00,,,0.00,Wunderground v.1.15,2013-09-25 08:35:00,
2013-09-25 03:40:00,65.2,46.6,29.86,North,9,0.0,0.0,51,0.00,,,0.00,Wunderground v.1.15,2013-09-25 08:40:00,
2013-09-25 03:45:00,65.2,47.1,29.86,North,9,0.0,0.0,52,0.00,,,0.00,Wunderground v.1.15,2013-09-25 08:45:00,
2013-09-25 03:50:00,65.2,47.6,29.86,North,9,0.0,0.0,53,0.00,,,0.00,Wunderground v.1.15,2013-09-25 08:50:00,
2013-09-25 04:00:00,65.1,47.0,29.86,North,9,0.0,0.0,52,0.00,,,0.00,Wunderground v.1.15,2013-09-25 09:00:00,
2013-09-25 04:05:00,65.0,46.9,29.86,North,9,0.0,0.0,52,0.00,,,0.00,Wunderground v.1.15,2013-09-25 09:05:00,
2013-09-25 04:10:00,64.9,46.3,29.86,North,9,0.0,0.0,51,0.00,,,0.00,Wunderground v.1.15,2013-09-25 09:10:00,
2013-09-25 04:15:00,65.3,45.1,29.86,North,9,0.0,0.0,48,0.00,,,0.00,Wunderground v.1.15,2013-09-25 09:15:00,
2013-09-25 04:25:00,65.9,45.6,29.85,North,5,0.0,0.0,48,0.00,,,0.00,Wunderground v.1.15,2013-09-25 09:25:00,
2013-09-25 04:30:00,66.0,45.7,29.85,North,5,0.0,0.0,48,0.00,,,0.00,Wunderground v.1.15,2013-09-25 09:30:00,
2013-09-25 04:35:00,65.9,46.2,29.86,North,5,0.0,0.0,49,0.00,,,0.00,Wunderground v.1.15,2013-09-25 09:35:00,
2013-09-25 04:40:00,66.0,45.7,29.86,North,5,0.0,0.0,48,0.00,,,0.00,Wunderground v.1.15,2013-09-25 09:40:00,
2013-09-25 04:45:00,66.1,45.8,29.86,North,5,0.0,0.0,48,0.00,,,0.00,Wunderground v.1.15,2013-09-25 09:45:00,
2013-09-25 04:50:00,66.1,45.8,29.85,NE,37,0.0,1.0,48,0.00,,,0.00,Wunderground v.1.15,2013-09-25 09:50:00,
2013-09-25 05:00:00,65.6,45.9,29.85,ENE,58,3.0,3.0,49,0.00,,,0.00,Wunderground v.1.15,2013-09-25 10:00:00,
2013-09-25 05:05:00,65.0,45.9,29.85,NE,42,3.0,3.0,50,0.00,,,0.00,Wunderground v.1.15,2013-09-25 10:05:00,
2013-09-25 05:10:00,64.7,45.6,29.85,ENE,57,3.0,3.0,50,0.00,,,0.00,Wunderground v.1.15,2013-09-25 10:10:00,
2013-09-25 05:15:00,64.5,45.4,29.85,ENE,57,2.0,3.0,50,0.00,,,0.00,Wunderground v.1.15,2013-09-25 10:15:00,
2013-09-25 05:20:00,64.5,46.0,29.86,ENE,57,2.0,2.0,51,0.00,,,0.00,Wunderground v.1.15,2013-09-25 10:20:00,
2013-09-25 05:30:00,64.3,46.3,29.86,ENE,57,2.0,2.0,52,0.00,,,0.00,Wunderground v.1.15,2013-09-25 10:30:00,
2013-09-25 05:35:00,63.9,46.4,29.86,NNE,17,2.0,2.0,53,0.00,,,0.00,Wunderground v.1.15,2013-09-25 10:35:00,
2013-09-25 05:45:00,63.3,46.9,29.86,NNE,17,1.0,2.0,55,0.00,,,0.00,Wunderground v.1.15,2013-09-25 10:45:00,
2013-09-25 05:55:00,62.9,47.4,29.86,NE,45,3.0,3.0,57,0.00,,,0.00,Wunderground v.1.15,2013-09-25 10:55:00,
2013-09-25 06:00:00,62.9,47.4,29.86,NE,45,2.0,2.0,57,0.00,,,0.00,Wunderground v.1.15,2013-09-25 11:00:00,
2013-09-25 06:05:00,63.0,47.5,29.86,NE,46,2.0,2.0,57,0.00,,,0.00,Wunderground v.1.15,2013-09-25 11:05:00,
2013-09-25 06:10:00,62.9,47.4,29.86,ENE,58,3.0,4.0,57,0.00,,,0.00,Wunderground v.1.15,2013-09-25 11:10:00,
2013-09-25 06:20:00,62.4,47.4,29.86,ENE,57,3.0,4.0,58,0.00,,,0.00,Wunderground v.1.15,2013-09-25 11:20:00,
2013-09-25 06:25:00,62.1,47.1,29.86,NE,53,2.0,4.0,58,0.00,,,0.00,Wunderground v.1.15,2013-09-25 11:25:00,
2013-09-25 06:35:00,61.8,46.9,29.87,ENE,59,2.0,4.0,58,0.00,,,0.00,Wunderground v.1.15,2013-09-25 11:35:00,
2013-09-25 06:45:00,61.7,46.8,29.87,ENE,59,3.0,3.0,58,0.00,,,0.00,Wunderground v.1.15,2013-09-25 11:45:00,
2013-09-25 06:55:00,61.6,47.1,29.87,NE,53,3.0,3.0,59,0.00,,,0.00,Wunderground v.1.15,2013-09-25 11:55:00,
2013-09-25 07:05:00,62.0,47.0,29.87,ENE,61,3.0,3.0,58,0.00,,,0.00,Wunderground v.1.15,2013-09-25 12:05:00,
2013-09-25 07:10:00,61.9,47.0,29.87,ENE,61,2.0,3.0,58,0.00,,,0.00,Wunderground v.1.15,2013-09-25 12:10:00,
2013-09-25 07:15:00,62.0,47.0,29.87,NE,42,2.0,3.0,58,0.00,,,0.00,Wunderground v.1.15,2013-09-25 12:15:00,
2013-09-25 07:20:00,62.1,47.1,29.87,NE,42,2.0,2.0,58,0.00,,,0.00,Wunderground v.1.15,2013-09-25 12:20:00,
2013-09-25 07:25:00,62.1,47.1,29.87,NE,42,1.0,2.0,58,0.00,,,0.00,Wunderground v.1.15,2013-09-25 12:25:00,
2013-09-25 07:30:00,62.2,47.7,29.87,NE,47,2.0,2.0,59,0.00,,,0.00,Wunderground v.1.15,2013-09-25 12:30:00,
2013-09-25 07:40:00,62.5,47.5,29.88,ENE,60,3.0,3.0,58,0.00,,,0.00,Wunderground v.1.15,2013-09-25 12:40:00,
2013-09-25 07:45:00,62.9,47.9,29.88,ENE,61,3.0,3.0,58,0.00,,,0.00,Wunderground v.1.15,2013-09-25 12:45:00,
2013-09-25 07:50:00,63.2,48.2,29.88,ENE,61,2.0,2.0,58,0.00,,,0.00,Wunderground v.1.15,2013-09-25 12:50:00,
2013-09-25 07:55:00,63.6,48.5,29.88,ENE,61,1.0,2.0,58,0.00,,,0.00,Wunderground v.1.15,2013-09-25 12:55:00,
2013-09-25 08:00:00,64.1,48.5,29.88,ENE,61,0.0,0.0,57,0.00,,,0.00,Wunderground v.1.15,2013-09-25 13:00:00,
2013-09-25 08:05:00,64.6,49.0,29.88,ENE,61,1.0,1.0,57,0.00,,,0.00,Wunderground v.1.15,2013-09-25 13:05:00,
2013-09-25 08:15:00,64.7,48.6,29.88,ENE,61,2.0,4.0,56,0.00,,,0.00,Wunderground v.1.15,2013-09-25 13:15:00,
2013-09-25 08:25:00,64.9,49.3,29.88,NE,53,2.0,3.0,57,0.00,,,0.00,Wunderground v.1.15,2013-09-25 13:25:00,
2013-09-25 08:30:00,65.2,49.6,29.88,NE,53,2.0,2.0,57,0.00,,,0.00,Wunderground v.1.15,2013-09-25 13:30:00,
2013-09-25 08:40:00,66.1,50.4,29.89,NE,53,1.0,1.0,57,0.00,,,0.00,Wunderground v.1.15,2013-09-25 13:40:00,
2013-09-25 08:50:00,66.8,51.1,29.89,ENE,63,2.0,2.0,57,0.00,,,0.00,Wunderground v.1.15,2013-09-25 13:50:00,
2013-09-25 08:55:00,67.0,51.3,29.89,ENE,67,2.0,2.0,57,0.00,,,0.00,Wunderground v.1.15,2013-09-25 13:55:00,
2013-09-25 09:00:00,67.4,51.6,29.89,ENE,67,2.0,2.0,57,0.00,,,0.00,Wunderground v.1.15,2013-09-25 14:00:00,
2013-09-25 09:05:00,68.1,52.3,29.89,ENE,67,1.0,2.0,57,0.00,,,0.00,Wunderground v.1.15,2013-09-25 14:05:00,
2013-09-25 09:15:00,69.3,52.9,29.89,ENE,67,1.0,1.0,56,0.00,,,0.00,Wunderground v.1.15,2013-09-25 14:15:00,
2013-09-25 09:20:00,69.6,53.7,29.89,ESE,108,2.0,3.0,57,0.00,,,0.00,Wunderground v.1.15,2013-09-25 14:20:00,
2013-09-25 09:25:00,69.7,53.8,29.89,East,93,3.0,3.0,57,0.00,,,0.00,Wunderground v.1.15,2013-09-25 14:25:00,
2013-09-25 09:30:00,70.1,53.7,29.89,East,86,4.0,4.0,56,0.00,,,0.00,Wunderground v.1.15,2013-09-25 14:30:00,
2013-09-25 09:35:00,70.7,54.2,29.89,East,86,3.0,4.0,56,0.00,,,0.00,Wunderground v.1.15,2013-09-25 14:35:00,
2013-09-25 09:40:00,71.3,54.3,29.89,East,88,2.0,2.0,55,0.00,,,0.00,Wunderground v.1.15,2013-09-25 14:40:00,
2013-09-25 09:45:00,71.9,54.9,29.89,SE,130,1.0,3.0,55,0.00,,,0.00,Wunderground v.1.15,2013-09-25 14:45:00,
2013-09-25 09:50:00,72.5,54.9,29.90,SE,138,2.0,4.0,54,0.00,,,0.00,Wunderground v.1.15,2013-09-25 14:50:00,
2013-09-25 09:55:00,73.0,54.9,29.90,SE,132,2.0,4.0,53,0.00,,,0.00,Wunderground v.1.15,2013-09-25 14:55:00,
2013-09-25 10:00:00,73.6,54.9,29.90,ESE,105,2.0,2.0,52,0.00,,,0.00,Wunderground v.1.15,2013-09-25 15:00:00,
2013-09-25 10:10:00,74.8,55.5,29.90,SE,126,2.0,3.0,51,0.00,,,0.00,Wunderground v.1.15,2013-09-25 15:10:00,
2013-09-25 10:20:00,76.6,55.4,29.90,SE,138,1.0,1.0,48,0.00,,,0.00,Wunderground v.1.15,2013-09-25 15:20:00,
2013-09-25 10:25:00,77.2,55.4,29.90,SE,143,1.0,4.0,47,0.00,,,0.00,Wunderground v.1.15,2013-09-25 15:25:00,
2013-09-25 10:30:00,77.3,55.5,29.90,SSE,167,1.0,1.0,47,0.00,,,0.00,Wunderground v.1.15,2013-09-25 15:30:00,
2013-09-25 10:40:00,77.9,55.5,29.90,SSE,153,2.0,2.0,46,0.00,,,0.00,Wunderground v.1.15,2013-09-25 15:40:00,
2013-09-25 10:50:00,78.7,54.3,29.90,SE,140,2.0,3.0,43,0.00,,,0.00,Wunderground v.1.15,2013-09-25 15:50:00,
2013-09-25 10:55:00,79.1,54.7,29.90,South,182,3.0,3.0,43,0.00,,,0.00,Wunderground v.1.15,2013-09-25 15:55:00,
2013-09-25 11:00:00,79.2,53.5,29.90,South,176,3.0,3.0,41,0.00,,,0.00,Wunderground v.1.15,2013-09-25 16:00:00,
2013-09-25 11:05:00,79.4,54.3,29.89,South,175,3.0,3.0,42,0.00,,,0.00,Wunderground v.1.15,2013-09-25 16:05:00,
2013-09-25 11:15:00,79.9,53.4,29.89,SSE,159,3.0,5.0,40,0.00,,,0.00,Wunderground v.1.15,2013-09-25 16:15:00,
2013-09-25 11:20:00,80.1,54.3,29.89,SSW,192,3.0,3.0,41,0.00,,,0.00,Wunderground v.1.15,2013-09-25 16:20:00,
2013-09-25 11:30:00,81.4,53.4,29.89,South,188,2.0,3.0,38,0.00,,,0.00,Wunderground v.1.15,2013-09-25 16:30:00,
2013-09-25 11:40:00,82.0,50.1,29.88,SW,221,3.0,3.0,33,0.00,,,0.00,Wunderground v.1.15,2013-09-25 16:40:00,
2013-09-25 11:50:00,82.2,51.0,29.88,SSW,192,3.0,7.0,34,0.00,,,0.00,Wunderground v.1.15,2013-09-25 16:50:00,
2013-09-25 11:55:00,82.2,50.2,29.88,SE,138,4.0,7.0,33,0.00,,,0.00,Wunderground v.1.15,2013-09-25 16:55:00,
2013-09-25 12:00:00,82.5,50.5,29.88,SSW,194,4.0,4.0,33,0.00,,,0.00,Wunderground v.1.15,2013-09-25 17:00:00,
2013-09-25 12:10:00,83.3,50.4,29.88,SSW,211,3.0,6.0,32,0.00,,,0.00,Wunderground v.1.15,2013-09-25 17:10:00,
2013-09-25 12:15:00,83.6,50.6,29.88,SW,231,2.0,7.0,32,0.00,,,0.00,Wunderground v.1.15,2013-09-25 17:15:00,
2013-09-25 12:25:00,83.6,50.6,29.88,SSE,160,4.0,4.0,32,0.00,,,0.00,Wunderground v.1.15,2013-09-25 17:25:00,
2013-09-25 12:30:00,83.5,51.4,29.87,East,86,3.0,3.0,33,0.00,,,0.00,Wunderground v.1.15,2013-09-25 17:30:00,
2013-09-25 12:35:00,83.7,52.3,29.87,ESE,122,3.0,3.0,34,0.00,,,0.00,Wunderground v.1.15,2013-09-25 17:35:00,
2013-09-25 12:40:00,83.8,51.6,29.87,SSW,194,5.0,7.0,33,0.00,,,0.00,Wunderground v.1.15,2013-09-25 17:40:00,
2013-09-25 12:50:00,84.4,51.3,29.86,ESE,115,5.0,5.0,32,0.00,,,0.00,Wunderground v.1.15,2013-09-25 17:50:00,
2013-09-25 12:55:00,84.6,50.6,29.86,SW,221,4.0,5.0,31,0.00,,,0.00,Wunderground v.1.15,2013-09-25 17:55:00,
2013-09-25 13:05:00,85.0,51.0,29.85,SSE,155,4.0,7.0,31,0.00,,,0.00,Wunderground v.1.15,2013-09-25 18:05:00,
2013-09-25 13:10:00,85.1,51.1,29.85,SSW,193,5.0,5.0,31,0.00,,,0.00,Wunderground v.1.15,2013-09-25 18:10:00,
2013-09-25 13:20:00,85.7,51.6,29.84,SE,134,2.0,3.0,31,0.00,,,0.00,Wunderground v.1.15,2013-09-25 18:20:00,
2013-09-25 13:30:00,85.9,50.9,29.84,ESE,105,4.0,4.0,30,0.00,,,0.00,Wunderground v.1.15,2013-09-25 18:30:00,
2013-09-25 13:35:00,85.9,50.9,29.84,SSW,193,3.0,4.0,30,0.00,,,0.00,Wunderground v.1.15,2013-09-25 18:35:00,
2013-09-25 13:40:00,86.6,50.6,29.83,WSW,240,4.0,6.0,29,0.00,,,0.00,Wunderground v.1.15,2013-09-25 18:40:00,
2013-09-25 13:50:00,87.1,49.1,29.83,East,100,2.0,2.0,27,0.00,,,0.00,Wunderground v.1.15,2013-09-25 18:50:00,
2013-09-25 13:55:00,88.0,49.8,29.83,SSW,204,2.0,3.0,27,0.00,,,0.00,Wunderground v.1.15,2013-09-25 18:55:00,
2013-09-25 14:00:00,88.3,49.1,29.82,WSW,239,3.0,3.0,26,0.00,,,0.00,Wunderground v.1.15,2013-09-25 19:00:00,
2013-09-25 14:05:00,88.2,49.0,29.82,South,176,3.0,3.0,26,0.00,,,0.00,Wunderground v.1.15,2013-09-25 19:05:00,
2013-09-25 14:15:00,88.4,49.2,29.81,SW,228,2.0,9.0,26,0.00,,,0.00,Wunderground v.1.15,2013-09-25 19:15:00,
2013-09-25 14:20:00,88.6,49.3,29.81,SW,216,4.0,4.0,26,0.00,,,0.00,Wunderground v.1.15,2013-09-25 19:20:00,
2013-09-25 14:30:00,88.7,48.4,29.80,South,188,3.0,3.0,25,0.00,,,0.00,Wunderground v.1.15,2013-09-25 19:30:00,
2013-09-25 14:35:00,88.8,48.4,29.80,SSW,195,2.0,4.0,25,0.00,,,0.00,Wunderground v.1.15,2013-09-25 19:35:00,
2013-09-25 14:40:00,89.5,47.9,29.79,ESE,122,3.0,3.0,24,0.00,,,0.00,Wunderground v.1.15,2013-09-25 19:40:00,
2013-09-25 14:45:00,89.3,47.8,29.79,SSE,147,4.0,4.0,24,0.00,,,0.00,Wunderground v.1.15,2013-09-25 19:45:00,
2013-09-25 14:55:00,89.9,48.3,29.79,SW,226,2.0,10.0,24,0.00,,,0.00,Wunderground v.1.15,2013-09-25 19:55:00,
2013-09-25 15:00:00,90.3,48.6,29.79,WSW,251,2.0,2.0,24,0.00,,,0.00,Wunderground v.1.15,2013-09-25 20:00:00,
2013-09-25 15:05:00,90.5,47.6,29.78,WSW,257,2.0,2.0,23,0.00,,,0.00,Wunderground v.1.15,2013-09-25 20:05:00,
2013-09-25 15:15:00,90.9,48.0,29.78,SW,219,2.0,6.0,23,0.00,,,0.00,Wunderground v.1.15,2013-09-25 20:15:00,
2013-09-25 15:20:00,90.8,47.9,29.78,SW,232,4.0,4.0,23,0.00,,,0.00,Wunderground v.1.15,2013-09-25 20:20:00,
2013-09-25 15:25:00,90.6,47.7,29.77,NW,304,4.0,4.0,23,0.00,,,0.00,Wunderground v.1.15,2013-09-25 20:25:00,